Time,TemperatureF,DewpointF,PressureIn,WindDirection,WindDirectionDegrees,WindSpeedMPH,WindSpeedGustMPH,Humidity,HourlyPrecipIn,Conditions,Clouds,dailyrainin,SolarRadiationWatts/m^2,SoftwareType,DateUTC
2013-01-14 00:03:00,62.1,59.7,30.16,South,182,0.0,0.0,92,0.00,,,0.00,0,Wunderground v.1.15,2013-01-14 05:03:00,
2013-01-14 00:08:00,62.0,59.6,30.16,South,182,0.0,0.0,92,0.00,,,0.00,0,Wunderground v.1.15,2013-01-14 05:08:00,
2013-01-14 00:13:00,61.9,59.5,30.16,South,182,0.0,0.0,92,0.00,,,0.00,0,Wunderground v.1.15,2013-01-14 05:13:00,
2013-01-14 00:18:00,61.8,59.5,30.16,South,182,0.0,0.0,92,0.00,,,0.00,0,Wunderground v.1.15,2013-01-14 05:18:00,
2013-01-14 00:23:00,61.8,59.5,30.16,South,182,0.0,0.0,92,0.00,,,0.00,0,Wunderground v.1.15,2013-01-14 05:23:00,
2013-01-14 00:33:00,61.7,59.7,30.16,South,182,0.0,0.0,93,0.00,,,0.00,0,Wunderground v.1.15,2013-01-14 05:33:00,
2013-01-14 00:43:00,61.6,59.3,30.16,South,182,0.0,0.0,92,0.00,,,0.00,0,Wunderground v.1.15,2013-01-14 05:43:00,
2013-01-14 00:48:00,61.4,59.4,30.17,South,182,0.0,0.0,93,0.00,,,0.00,0,Wunderground v.1.15,2013-01-14 05:48:00,
2013-01-14 00:58:00,61.3,59.3,30.17,South,182,0.0,0.0,93,0.00,,,0.00,0,Wunderground v.1.15,2013-01-14 05:58:00,
2013-01-14 01:03:00,61.3,59.3,30.17,South,182,0.0,0.0,93,0.00,,,0.00,0,Wunderground v.1.15,2013-01-14 06:03:00,
2013-01-14 01:13:00,61.3,59.3,30.17,South,182,0.0,0.0,93,0.00,,,0.00,0,Wunderground v.1.15,2013-01-14 06:13:00,
2013-01-14 01:18:00,61.3,59.3,30.17,South,182,0.0,0.0,93,0.00,,,0.00,0,Wunderground v.1.15,2013-01-14 06:18:00,
2013-01-14 01:28:00,61.2,59.2,30.17,South,182,0.0,0.0,93,0.00,,,0.00,0,Wunderground v.1.15,2013-01-14 06:28:00,
2013-01-14 01:33:00,61.1,59.1,30.17,South,182,0.0,0.0,93,0.00,,,0.00,0,Wunderground v.1.15,2013-01-14 06:33:00,
2013-01-14 01:43:00,60.9,58.9,30.17,South,182,0.0,0.0,93,0.00,,,0.00,0,Wunderground v.1.15,2013-01-14 06:43:00,
2013-01-14 01:48:00,60.9,58.9,30.17,South,182,0.0,0.0,93,0.00,,,0.00,0,Wunderground v.1.15,2013-01-14 06:48:00,
2013-01-14 01:58:00,60.9,59.2,30.17,South,182,0.0,0.0,94,0.00,,,0.00,0,Wunderground v.1.15,2013-01-14 06:58:00,
2013-01-14 02:03:00,60.8,59.1,30.17,South,182,0.0,0.0,94,0.00,,,0.00,0,Wunderground v.1.15,2013-01-14 07:03:00,
2013-01-14 02:13:00,60.7,59.0,30.17,South,182,0.0,0.0,94,0.00,,,0.00,0,Wunderground v.1.15,2013-01-14 07:13:00,
2013-01-14 02:18:00,60.7,59.0,30.17,South,182,0.0,0.0,94,0.00,,,0.00,0,Wunderground v.1.15,2013-01-14 07:18:00,
2013-01-14 02:28:00,60.6,58.9,30.17,South,182,0.0,0.0,94,0.00,,,0.00,0,Wunderground v.1.15,2013-01-14 07:28:00,
2013-01-14 02:33:00,60.5,58.8,30.17,South,182,0.0,0.0,94,0.00,,,0.00,0,Wunderground v.1.15,2013-01-14 07:33:00,
2013-01-14 02:43:00,60.3,58.6,30.17,South,182,0.0,0.0,94,0.00,,,0.00,0,Wunderground v.1.15,2013-01-14 07:43:00,
2013-01-14 02:53:00,60.2,58.5,30.17,South,182,0.0,0.0,94,0.00,,,0.00,0,Wunderground v.1.15,2013-01-14 07:53:00,
2013-01-14 02:58:00,60.1,58.4,30.17,South,182,0.0,0.0,94,0.00,,,0.00,0,Wunderground v.1.15,2013-01-14 07:58:00,
2013-01-14 03:03:00,59.9,58.2,30.17,South,182,0.0,0.0,94,0.00,,,0.00,0,Wunderground v.1.15,2013-01-14 08:03:00,
2013-01-14 03:13:00,59.7,58.0,30.17,South,182,0.0,0.0,94,0.00,,,0.00,0,Wunderground v.1.15,2013-01-14 08:13:00,
2013-01-14 03:18:00,59.6,57.9,30.17,South,182,0.0,0.0,94,0.00,,,0.00,0,Wunderground v.1.15,2013-01-14 08:18:00,
2013-01-14 03:28:00,59.5,57.8,30.16,South,182,0.0,0.0,94,0.00,,,0.00,0,Wunderground v.1.15,2013-01-14 08:28:00,
2013-01-14 03:33:00,59.5,57.8,30.16,South,182,0.0,0.0,94,0.00,,,0.00,0,Wunderground v.1.15,2013-01-14 08:33:00,
2013-01-14 03:38:00,59.4,57.7,30.16,South,182,0.0,0.0,94,0.00,,,0.00,0,Wunderground v.1.15,2013-01-14 08:38:00,
2013-01-14 03:48:00,59.3,57.6,30.16,South,182,0.0,0.0,94,0.00,,,0.00,0,Wunderground v.1.15,2013-01-14 08:48:00,
2013-01-14 03:53:00,59.3,57.6,30.16,South,182,0.0,0.0,94,0.00,,,0.00,0,Wunderground v.1.15,2013-01-14 08:53:00,
2013-01-14 03:58:00,59.2,57.5,30.16,South,182,0.0,0.0,94,0.00,,,0.00,0,Wunderground v.1.15,2013-01-14 08:58:00,
2013-01-14 04:03:00,59.1,57.4,30.16,South,182,0.0,0.0,94,0.00,,,0.00,0,Wunderground v.1.15,2013-01-14 09:03:00,
2013-01-14 04:13:00,59.0,57.3,30.16,South,182,0.0,0.0,94,0.00,,,0.00,0,Wunderground v.1.15,2013-01-14 09:13:00,
2013-01-14 04:18:00,58.9,57.2,30.15,South,182,0.0,0.0,94,0.00,,,0.00,0,Wunderground v.1.15,2013-01-14 09:18:00,
2013-01-14 04:28:00,58.9,57.2,30.15,South,182,0.0,0.0,94,0.00,,,0.00,0,Wunderground v.1.15,2013-01-14 09:28:00,
2013-01-14 04:33:00,58.9,57.2,30.15,South,182,0.0,0.0,94,0.00,,,0.00,0,Wunderground v.1.15,2013-01-14 09:33:00,
2013-01-14 04:43:00,59.0,57.6,30.15,South,182,0.0,0.0,95,0.00,,,0.00,0,Wunderground v.1.15,2013-01-14 09:43:00,
2013-01-14 04:48:00,59.0,57.6,30.15,South,182,0.0,0.0,95,0.00,,,0.00,0,Wunderground v.1.15,2013-01-14 09:48:00,
2013-01-14 04:53:00,58.9,57.5,30.15,South,182,0.0,0.0,95,0.00,,,0.00,0,Wunderground v.1.15,2013-01-14 09:53:00,
2013-01-14 04:58:00,58.9,57.5,30.15,South,182,0.0,0.0,95,0.00,,,0.00,0,Wunderground v.1.15,2013-01-14 09:58:00,
2013-01-14 05:03:00,58.9,57.5,30.15,South,182,0.0,0.0,95,0.00,,,0.00,0,Wunderground v.1.15,2013-01-14 10:03:00,
2013-01-14 05:13:00,59.0,57.6,30.15,South,182,0.0,0.0,95,0.00,,,0.00,0,Wunderground v.1.15,2013-01-14 10:13:00,
2013-01-14 05:18:00,59.0,57.6,30.14,South,182,0.0,0.0,95,0.00,,,0.00,0,Wunderground v.1.15,2013-01-14 10:18:00,
2013-01-14 05:28:00,58.9,57.5,30.14,South,182,0.0,0.0,95,0.00,,,0.00,0,Wunderground v.1.15,2013-01-14 10:28:00,
2013-01-14 05:33:00,58.9,57.5,30.14,South,182,0.0,0.0,95,0.00,,,0.00,0,Wunderground v.1.15,2013-01-14 10:33:00,
2013-01-14 05:43:00,58.9,57.5,30.14,South,182,0.0,0.0,95,0.00,,,0.00,0,Wunderground v.1.15,2013-01-14 10:43:00,
2013-01-14 05:48:00,58.9,57.5,30.14,South,182,0.0,0.0,95,0.00,,,0.00,0,Wunderground v.1.15,2013-01-14 10:48:00,
2013-01-14 05:58:00,58.9,57.5,30.14,South,182,0.0,0.0,95,0.00,,,0.00,0,Wunderground v.1.15,2013-01-14 10:58:00,
2013-01-14 06:03:00,58.9,57.5,30.14,South,182,0.0,0.0,95,0.00,,,0.00,0,Wunderground v.1.15,2013-01-14 11:03:00,
2013-01-14 06:13:00,59.3,58.2,30.14,South,182,0.0,0.0,96,0.00,,,0.00,0,Wunderground v.1.15,2013-01-14 11:13:00,
2013-01-14 06:18:00,59.5,58.4,30.14,South,182,0.0,0.0,96,0.00,,,0.00,0,Wunderground v.1.15,2013-01-14 11:18:00,
2013-01-14 06:28:00,59.8,58.7,30.15,South,182,0.0,0.0,96,0.00,,,0.00,0,Wunderground v.1.15,2013-01-14 11:28:00,
2013-01-14 06:33:00,59.8,58.7,30.15,South,182,0.0,0.0,96,0.00,,,0.00,0,Wunderground v.1.15,2013-01-14 11:33:00,
2013-01-14 06:43:00,59.9,58.8,30.15,South,182,0.0,0.0,96,0.00,,,0.00,0,Wunderground v.1.15,2013-01-14 11:43:00,
2013-01-14 06:48:00,59.9,58.8,30.16,South,182,0.0,0.0,96,0.00,,,0.00,0,Wunderground v.1.15,2013-01-14 11:48:00,
2013-01-14 06:53:00,60.0,58.9,30.16,South,182,0.0,0.0,96,0.00,,,0.00,0,Wunderground v.1.15,2013-01-14 11:53:00,
2013-01-14 07:03:00,60.0,58.9,30.16,South,182,0.0,0.0,96,0.00,,,0.00,0,Wunderground v.1.15,2013-01-14 12:03:00,
2013-01-14 07:13:00,59.9,58.8,30.17,South,182,0.0,0.0,96,0.00,,,0.00,0,Wunderground v.1.15,2013-01-14 12:13:00,
2013-01-14 07:18:00,59.9,58.8,30.16,South,182,0.0,0.0,96,0.00,,,0.00,0,Wunderground v.1.15,2013-01-14 12:18:00,
2013-01-14 07:28:00,59.7,58.6,30.16,South,182,0.0,0.0,96,0.00,,,0.00,0,Wunderground v.1.15,2013-01-14 12:28:00,
2013-01-14 07:33:00,59.6,58.2,30.17,South,182,0.0,0.0,95,0.00,,,0.00,5,Wunderground v.1.15,2013-01-14 12:33:00,
2013-01-14 07:43:00,60.3,59.2,30.17,South,182,0.0,0.0,96,0.00,,,0.00,7,Wunderground v.1.15,2013-01-14 12:43:00,
2013-01-14 07:48:00,60.7,59.6,30.17,South,182,0.0,0.0,96,0.00,,,0.00,11,Wunderground v.1.15,2013-01-14 12:48:00,
2013-01-14 07:58:00,61.6,60.4,30.18,South,182,0.0,0.0,96,0.00,,,0.00,23,Wunderground v.1.15,2013-01-14 12:58:00,
2013-01-14 08:03:00,61.9,61.0,30.18,South,182,0.0,0.0,97,0.00,,,0.00,26,Wunderground v.1.15,2013-01-14 13:03:00,
2013-01-14 08:13:00,62.3,61.1,30.18,South,182,0.0,0.0,96,0.00,,,0.00,30,Wunderground v.1.15,2013-01-14 13:13:00,
2013-01-14 08:18:00,62.5,61.3,30.19,South,182,0.0,0.0,96,0.00,,,0.00,32,Wunderground v.1.15,2013-01-14 13:18:00,
2013-01-14 08:28:00,63.0,62.1,30.18,South,182,0.0,0.0,97,0.00,,,0.00,37,Wunderground v.1.15,2013-01-14 13:28:00,
2013-01-14 08:33:00,63.3,62.4,30.19,South,182,0.0,0.0,97,0.00,,,0.00,42,Wunderground v.1.15,2013-01-14 13:33:00,
2013-01-14 08:43:00,63.9,63.0,30.19,South,182,0.0,2.0,97,0.00,,,0.00,53,Wunderground v.1.15,2013-01-14 13:43:00,
2013-01-14 08:48:00,64.2,63.3,30.19,South,182,0.0,2.0,97,0.00,,,0.00,46,Wunderground v.1.15,2013-01-14 13:48:00,
2013-01-14 08:58:00,64.7,63.8,30.19,South,182,1.0,2.0,97,0.00,,,0.00,62,Wunderground v.1.15,2013-01-14 13:58:00,
2013-01-14 09:03:00,65.0,64.1,30.19,South,182,1.0,5.0,97,0.00,,,0.00,70,Wunderground v.1.15,2013-01-14 14:03:00,
2013-01-14 09:13:00,65.7,64.8,30.19,South,182,3.0,3.0,97,0.00,,,0.00,69,Wunderground v.1.15,2013-01-14 14:13:00,
2013-01-14 09:18:00,66.0,65.1,30.20,South,181,2.0,5.0,97,0.00,,,0.00,90,Wunderground v.1.15,2013-01-14 14:18:00,
2013-01-14 09:28:00,66.5,65.6,30.20,South,182,3.0,4.0,97,0.00,,,0.00,123,Wunderground v.1.15,2013-01-14 14:28:00,
2013-01-14 09:33:00,66.8,65.9,30.20,South,182,3.0,4.0,97,0.00,,,0.00,113,Wunderground v.1.15,2013-01-14 14:33:00,
2013-01-14 09:43:00,67.4,66.5,30.20,South,182,2.0,3.0,97,0.00,,,0.00,104,Wunderground v.1.15,2013-01-14 14:43:00,
2013-01-14 09:48:00,67.7,66.5,30.20,South,180,2.0,3.0,96,0.00,,,0.00,120,Wunderground v.1.15,2013-01-14 14:48:00,
2013-01-14 09:58:00,68.8,67.3,30.20,SSW,195,4.0,7.0,95,0.00,,,0.00,396,Wunderground v.1.15,2013-01-14 14:58:00,
2013-01-14 10:03:00,69.4,67.6,30.20,South,191,4.0,10.0,94,0.00,,,0.00,371,Wunderground v.1.15,2013-01-14 15:03:00,
2013-01-14 10:13:00,70.6,67.5,30.20,South,187,3.0,3.0,90,0.00,,,0.00,446,Wunderground v.1.15,2013-01-14 15:13:00,
2013-01-14 10:18:00,71.4,67.7,30.20,SSW,196,2.0,4.0,88,0.00,,,0.00,462,Wunderground v.1.15,2013-01-14 15:18:00,
2013-01-14 10:28:00,72.5,67.4,30.20,South,190,3.0,5.0,84,0.00,,,0.00,487,Wunderground v.1.15,2013-01-14 15:28:00,
2013-01-14 10:33:00,73.0,67.2,30.20,SSW,198,4.0,4.0,82,0.00,,,0.00,499,Wunderground v.1.15,2013-01-14 15:33:00,
2013-01-14 10:43:00,73.9,67.3,30.20,SSW,198,2.0,2.0,80,0.00,,,0.00,519,Wunderground v.1.15,2013-01-14 15:43:00,
2013-01-14 10:48:00,74.2,67.6,30.20,SSW,198,2.0,2.0,80,0.00,,,0.00,533,Wunderground v.1.15,2013-01-14 15:48:00,
2013-01-14 10:58:00,75.7,67.6,30.20,SSW,198,1.0,3.0,76,0.00,,,0.00,547,Wunderground v.1.15,2013-01-14 15:58:00,
2013-01-14 11:03:00,76.1,67.2,30.19,SSW,197,2.0,4.0,74,0.00,,,0.00,557,Wunderground v.1.15,2013-01-14 16:03:00,
2013-01-14 11:13:00,76.7,67.0,30.19,South,183,3.0,3.0,72,0.00,,,0.00,573,Wunderground v.1.15,2013-01-14 16:13:00,
2013-01-14 11:18:00,77.1,66.6,30.19,South,180,2.0,5.0,70,0.00,,,0.00,582,Wunderground v.1.15,2013-01-14 16:18:00,
2013-01-14 11:28:00,77.6,66.2,30.18,South,187,3.0,3.0,68,0.00,,,0.00,591,Wunderground v.1.15,2013-01-14 16:28:00,
2013-01-14 11:33:00,77.8,66.0,30.18,South,185,3.0,3.0,67,0.00,,,0.00,599,Wunderground v.1.15,2013-01-14 16:33:00,
2013-01-14 11:43:00,78.2,65.9,30.17,South,182,3.0,3.0,66,0.00,,,0.00,610,Wunderground v.1.15,2013-01-14 16:43:00,
2013-01-14 11:48:00,78.5,65.8,30.17,SSW,192,2.0,4.0,65,0.00,,,0.00,613,Wunderground v.1.15,2013-01-14 16:48:00,
2013-01-14 11:58:00,78.6,65.8,30.17,South,189,3.0,7.0,65,0.00,,,0.00,624,Wunderground v.1.15,2013-01-14 16:58:00,
2013-01-14 12:03:00,78.9,65.7,30.16,South,186,3.0,4.0,64,0.00,,,0.00,624,Wunderground v.1.15,2013-01-14 17:03:00,
2013-01-14 12:13:00,79.6,65.9,30.16,South,187,1.0,1.0,63,0.00,,,0.00,629,Wunderground v.1.15,2013-01-14 17:13:00,
2013-01-14 12:18:00,79.7,65.1,30.15,South,187,2.0,5.0,61,0.00,,,0.00,652,Wunderground v.1.15,2013-01-14 17:18:00,
2013-01-14 12:28:00,80.1,64.5,30.15,South,187,2.0,5.0,59,0.00,,,0.00,666,Wunderground v.1.15,2013-01-14 17:28:00,
2013-01-14 12:33:00,80.0,64.9,30.15,SSW,197,2.0,9.0,60,0.00,,,0.00,677,Wunderground v.1.15,2013-01-14 17:33:00,
2013-01-14 12:43:00,80.2,65.1,30.14,South,190,2.0,6.0,60,0.00,,,0.00,680,Wunderground v.1.15,2013-01-14 17:43:00,
2013-01-14 12:48:00,80.3,64.7,30.14,South,189,2.0,6.0,59,0.00,,,0.00,647,Wunderground v.1.15,2013-01-14 17:48:00,
2013-01-14 12:53:00,80.5,64.4,30.14,South,187,2.0,2.0,58,0.00,,,0.00,670,Wunderground v.1.15,2013-01-14 17:53:00,
2013-01-14 13:03:00,80.4,64.3,30.13,South,187,2.0,2.0,58,0.00,,,0.00,689,Wunderground v.1.15,2013-01-14 18:03:00,
2013-01-14 13:13:00,80.5,64.4,30.13,South,187,0.0,0.0,58,0.00,,,0.00,661,Wunderground v.1.15,2013-01-14 18:13:00,
2013-01-14 13:18:00,81.1,64.9,30.13,South,184,1.0,1.0,58,0.00,,,0.00,629,Wunderground v.1.15,2013-01-14 18:18:00,
2013-01-14 13:28:00,81.6,64.4,30.13,South,184,0.0,1.0,56,0.00,,,0.00,606,Wunderground v.1.15,2013-01-14 18:28:00,
2013-01-14 13:33:00,81.2,64.5,30.12,South,182,1.0,1.0,57,0.00,,,0.00,603,Wunderground v.1.15,2013-01-14 18:33:00,
2013-01-14 13:43:00,81.2,65.0,30.12,South,184,2.0,2.0,58,0.00,,,0.00,582,Wunderground v.1.15,2013-01-14 18:43:00,
2013-01-14 13:48:00,80.9,64.2,30.12,South,176,1.0,6.0,57,0.00,,,0.00,580,Wunderground v.1.15,2013-01-14 18:48:00,
2013-01-14 13:58:00,80.8,64.1,30.11,South,180,3.0,5.0,57,0.00,,,0.00,557,Wunderground v.1.15,2013-01-14 18:58:00,
2013-01-14 14:03:00,80.6,64.5,30.11,SSW,201,3.0,7.0,58,0.00,,,0.00,557,Wunderground v.1.15,2013-01-14 19:03:00,
2013-01-14 14:13:00,80.6,64.5,30.11,South,189,3.0,3.0,58,0.00,,,0.00,536,Wunderground v.1.15,2013-01-14 19:13:00,
2013-01-14 14:18:00,80.9,63.7,30.12,SSW,193,2.0,7.0,56,0.00,,,0.00,522,Wunderground v.1.15,2013-01-14 19:18:00,
2013-01-14 14:28:00,80.9,63.7,30.12,SSW,192,3.0,8.0,56,0.00,,,0.00,513,Wunderground v.1.15,2013-01-14 19:28:00,
2013-01-14 14:33:00,80.6,64.0,30.12,South,190,3.0,3.0,57,0.00,,,0.00,504,Wunderground v.1.15,2013-01-14 19:33:00,
2013-01-14 14:43:00,81.0,63.8,30.12,South,189,1.0,2.0,56,0.00,,,0.00,489,Wunderground v.1.15,2013-01-14 19:43:00,
2013-01-14 14:48:00,80.9,64.2,30.12,South,189,2.0,2.0,57,0.00,,,0.00,471,Wunderground v.1.15,2013-01-14 19:48:00,
2013-01-14 14:58:00,80.6,63.5,30.13,South,187,1.0,2.0,56,0.00,,,0.00,450,Wunderground v.1.15,2013-01-14 19:58:00,
2013-01-14 15:03:00,80.9,63.7,30.12,South,180,1.0,1.0,56,0.00,,,0.00,427,Wunderground v.1.15,2013-01-14 20:03:00,
2013-01-14 15:13:00,80.6,64.0,30.12,South,176,1.0,2.0,57,0.00,,,0.00,392,Wunderground v.1.15,2013-01-14 20:13:00,
2013-01-14 15:23:00,80.3,64.2,30.12,South,176,1.0,1.0,58,0.00,,,0.00,373,Wunderground v.1.15,2013-01-14 20:23:00,
2013-01-14 15:28:00,80.1,64.0,30.12,South,177,1.0,2.0,58,0.00,,,0.00,360,Wunderground v.1.15,2013-01-14 20:28:00,
2013-01-14 15:33:00,80.1,64.0,30.13,South,179,1.0,3.0,58,0.00,,,0.00,186,Wunderground v.1.15,2013-01-14 20:33:00,
2013-01-14 15:43:00,79.5,63.9,30.13,South,178,1.0,1.0,59,0.00,,,0.00,225,Wunderground v.1.15,2013-01-14 20:43:00,
2013-01-14 15:48:00,79.2,63.6,30.13,South,178,1.0,4.0,59,0.00,,,0.00,299,Wunderground v.1.15,2013-01-14 20:48:00,
2013-01-14 15:58:00,78.9,63.8,30.13,South,178,1.0,2.0,60,0.00,,,0.00,162,Wunderground v.1.15,2013-01-14 20:58:00,
2013-01-14 16:03:00,79.0,63.9,30.14,South,178,0.0,0.0,60,0.00,,,0.00,118,Wunderground v.1.15,2013-01-14 21:03:00,
2013-01-14 16:13:00,78.8,63.7,30.14,South,180,1.0,1.0,60,0.00,,,0.00,130,Wunderground v.1.15,2013-01-14 21:13:00,
2013-01-14 16:18:00,78.8,63.7,30.14,South,180,1.0,1.0,60,0.00,,,0.00,90,Wunderground v.1.15,2013-01-14 21:18:00,
2013-01-14 16:28:00,78.4,63.4,30.14,South,181,0.0,1.0,60,0.00,,,0.00,93,Wunderground v.1.15,2013-01-14 21:28:00,
2013-01-14 16:33:00,78.4,63.4,30.14,South,180,0.0,0.0,60,0.00,,,0.00,79,Wunderground v.1.15,2013-01-14 21:33:00,
2013-01-14 16:43:00,78.4,63.4,30.14,South,178,0.0,0.0,60,0.00,,,0.00,51,Wunderground v.1.15,2013-01-14 21:43:00,
2013-01-14 16:48:00,78.2,63.2,30.14,South,177,1.0,2.0,60,0.00,,,0.00,54,Wunderground v.1.15,2013-01-14 21:48:00,
2013-01-14 16:58:00,77.9,62.9,30.14,South,177,1.0,1.0,60,0.00,,,0.00,49,Wunderground v.1.15,2013-01-14 21:58:00,
2013-01-14 17:03:00,77.7,62.7,30.15,South,177,0.0,0.0,60,0.00,,,0.00,53,Wunderground v.1.15,2013-01-14 22:03:00,
2013-01-14 17:13:00,77.4,62.9,30.15,South,177,0.0,0.0,61,0.00,,,0.00,39,Wunderground v.1.15,2013-01-14 22:13:00,
2013-01-14 17:23:00,77.2,63.2,30.15,South,177,0.0,0.0,62,0.00,,,0.00,40,Wunderground v.1.15,2013-01-14 22:23:00,
2013-01-14 17:28:00,77.1,63.1,30.15,South,177,0.0,0.0,62,0.00,,,0.00,25,Wunderground v.1.15,2013-01-14 22:28:00,
2013-01-14 17:33:00,76.9,62.9,30.15,South,177,0.0,0.0,62,0.00,,,0.00,18,Wunderground v.1.15,2013-01-14 22:33:00,
2013-01-14 17:43:00,76.6,64.0,30.15,South,177,0.0,0.0,65,0.00,,,0.00,5,Wunderground v.1.15,2013-01-14 22:43:00,
2013-01-14 17:48:00,76.2,64.4,30.15,South,177,0.0,0.0,67,0.00,,,0.00,0,Wunderground v.1.15,2013-01-14 22:48:00,
2013-01-14 17:58:00,75.4,64.5,30.15,South,177,0.0,0.0,69,0.00,,,0.00,0,Wunderground v.1.15,2013-01-14 22:58:00,
2013-01-14 18:03:00,75.1,64.6,30.16,South,177,0.0,0.0,70,0.00,,,0.00,0,Wunderground v.1.15,2013-01-14 23:03:00,
2013-01-14 18:13:00,74.3,64.3,30.16,South,177,0.0,0.0,71,0.00,,,0.00,0,Wunderground v.1.15,2013-01-14 23:13:00,
2013-01-14 18:18:00,73.8,64.2,30.16,South,177,0.0,0.0,72,0.00,,,0.00,0,Wunderground v.1.15,2013-01-14 23:18:00,
2013-01-14 18:28:00,73.2,64.0,30.16,South,177,0.0,0.0,73,0.00,,,0.00,0,Wunderground v.1.15,2013-01-14 23:28:00,
2013-01-14 18:33:00,72.9,64.1,30.16,South,177,0.0,0.0,74,0.00,,,0.00,0,Wunderground v.1.15,2013-01-14 23:33:00,
2013-01-14 18:43:00,72.3,64.3,30.16,South,177,0.0,0.0,76,0.00,,,0.00,0,Wunderground v.1.15,2013-01-14 23:43:00,
2013-01-14 18:48:00,72.0,64.0,30.17,South,177,0.0,0.0,76,0.00,,,0.00,0,Wunderground v.1.15,2013-01-14 23:48:00,
2013-01-14 18:58:00,71.5,63.9,30.17,South,177,0.0,0.0,77,0.00,,,0.00,0,Wunderground v.1.15,2013-01-14 23:58:00,
2013-01-14 19:03:00,71.4,63.8,30.17,South,177,0.0,0.0,77,0.00,,,0.00,0,Wunderground v.1.15,2013-01-15 00:03:00,
2013-01-14 19:13:00,71.0,63.8,30.17,South,177,0.0,0.0,78,0.00,,,0.00,0,Wunderground v.1.15,2013-01-15 00:13:00,
2013-01-14 19:18:00,70.8,63.6,30.17,South,177,0.0,0.0,78,0.00,,,0.00,0,Wunderground v.1.15,2013-01-15 00:18:00,
2013-01-14 19:28:00,70.6,63.4,30.17,South,177,0.0,0.0,78,0.00,,,0.00,0,Wunderground v.1.15,2013-01-15 00:28:00,
2013-01-14 19:33:00,70.5,63.7,30.17,South,177,0.0,0.0,79,0.00,,,0.00,0,Wunderground v.1.15,2013-01-15 00:33:00,
2013-01-14 19:43:00,70.4,63.6,30.16,South,177,0.0,0.0,79,0.00,,,0.00,0,Wunderground v.1.15,2013-01-15 00:43:00,
2013-01-14 19:48:00,70.3,63.5,30.16,South,177,0.0,0.0,79,0.00,,,0.00,0,Wunderground v.1.15,2013-01-15 00:48:00,
2013-01-14 19:58:00,70.0,63.2,30.16,South,177,0.0,0.0,79,0.00,,,0.00,0,Wunderground v.1.15,2013-01-15 00:58:00,
2013-01-14 20:03:00,69.9,63.1,30.16,South,177,0.0,0.0,79,0.00,,,0.00,0,Wunderground v.1.15,2013-01-15 01:03:00,
2013-01-14 20:13:00,69.7,63.3,30.16,South,177,0.0,0.0,80,0.00,,,0.00,0,Wunderground v.1.15,2013-01-15 01:13:00,
2013-01-14 20:18:00,69.7,63.3,30.16,South,177,0.0,0.0,80,0.00,,,0.00,0,Wunderground v.1.15,2013-01-15 01:18:00,
2013-01-14 20:28:00,69.5,63.1,30.16,South,177,0.0,0.0,80,0.00,,,0.00,0,Wunderground v.1.15,2013-01-15 01:28:00,
2013-01-14 20:33:00,69.5,63.1,30.16,South,177,0.0,0.0,80,0.00,,,0.00,0,Wunderground v.1.15,2013-01-15 01:33:00,
2013-01-14 20:43:00,69.4,63.3,30.17,South,177,0.0,0.0,81,0.00,,,0.00,0,Wunderground v.1.15,2013-01-15 01:43:00,
2013-01-14 20:48:00,69.3,63.2,30.17,South,177,0.0,0.0,81,0.00,,,0.00,0,Wunderground v.1.15,2013-01-15 01:48:00,
2013-01-14 20:58:00,69.1,63.0,30.17,South,177,0.0,0.0,81,0.00,,,0.00,0,Wunderground v.1.15,2013-01-15 01:58:00,
2013-01-14 21:03:00,69.0,62.9,30.17,South,177,0.0,0.0,81,0.00,,,0.00,0,Wunderground v.1.15,2013-01-15 02:03:00,
2013-01-14 21:13:00,68.9,63.2,30.16,South,177,0.0,0.0,82,0.00,,,0.00,0,Wunderground v.1.15,2013-01-15 02:13:00,
2013-01-14 21:23:00,68.7,63.0,30.16,South,177,0.0,0.0,82,0.00,,,0.00,0,Wunderground v.1.15,2013-01-15 02:23:00,
2013-01-14 21:28:00,68.7,63.0,30.16,South,177,0.0,0.0,82,0.00,,,0.00,0,Wunderground v.1.15,2013-01-15 02:28:00,
2013-01-14 21:33:00,68.6,62.9,30.16,South,177,0.0,0.0,82,0.00,,,0.00,0,Wunderground v.1.15,2013-01-15 02:33:00,
2013-01-14 21:43:00,68.5,63.1,30.16,South,177,0.0,0.0,83,0.00,,,0.00,0,Wunderground v.1.15,2013-01-15 02:43:00,
2013-01-14 21:48:00,68.5,63.1,30.16,South,177,0.0,0.0,83,0.00,,,0.00,0,Wunderground v.1.15,2013-01-15 02:48:00,
2013-01-14 21:53:00,68.4,63.0,30.17,South,177,0.0,0.0,83,0.00,,,0.00,0,Wunderground v.1.15,2013-01-15 02:53:00,
2013-01-14 21:58:00,68.4,63.0,30.16,South,177,0.0,0.0,83,0.00,,,0.00,0,Wunderground v.1.15,2013-01-15 02:58:00,
2013-01-14 22:03:00,68.4,63.0,30.16,South,177,0.0,0.0,83,0.00,,,0.00,0,Wunderground v.1.15,2013-01-15 03:03:00,
2013-01-14 22:13:00,68.2,62.8,30.16,South,177,0.0,0.0,83,0.00,,,0.00,0,Wunderground v.1.15,2013-01-15 03:13:00,
2013-01-14 22:18:00,68.2,62.8,30.16,South,177,0.0,0.0,83,0.00,,,0.00,0,Wunderground v.1.15,2013-01-15 03:18:00,
2013-01-14 22:28:00,68.0,62.6,30.17,South,177,0.0,1.0,83,0.00,,,0.00,0,Wunderground v.1.15,2013-01-15 03:28:00,
2013-01-14 22:33:00,67.9,62.9,30.17,South,177,0.0,0.0,84,0.00,,,0.00,0,Wunderground v.1.15,2013-01-15 03:33:00,
2013-01-14 22:43:00,67.7,62.7,30.17,South,177,0.0,0.0,84,0.00,,,0.00,0,Wunderground v.1.15,2013-01-15 03:43:00,
2013-01-14 22:48:00,67.6,62.6,30.17,South,177,0.0,0.0,84,0.00,,,0.00,0,Wunderground v.1.15,2013-01-15 03:48:00,
2013-01-14 22:58:00,67.4,62.7,30.17,South,177,0.0,0.0,85,0.00,,,0.00,0,Wunderground v.1.15,2013-01-15 03:58:00,
2013-01-14 23:03:00,67.3,62.6,30.17,South,177,0.0,0.0,85,0.00,,,0.00,0,Wunderground v.1.15,2013-01-15 04:03:00,
2013-01-14 23:13:00,67.1,62.4,30.17,South,177,0.0,0.0,85,0.00,,,0.00,0,Wunderground v.1.15,2013-01-15 04:13:00,
2013-01-14 23:23:00,66.8,62.5,30.17,South,177,0.0,0.0,86,0.00,,,0.00,0,Wunderground v.1.15,2013-01-15 04:23:00,
2013-01-14 23:28:00,66.7,62.4,30.17,South,177,0.0,0.0,86,0.00,,,0.00,0,Wunderground v.1.15,2013-01-15 04:28:00,
2013-01-14 23:33:00,66.6,62.3,30.17,South,177,0.0,0.0,86,0.00,,,0.00,0,Wunderground v.1.15,2013-01-15 04:33:00,
2013-01-14 23:43:00,66.4,62.1,30.17,South,177,0.0,0.0,86,0.00,,,0.00,0,Wunderground v.1.15,2013-01-15 04:43:00,
2013-01-14 23:48:00,66.3,62.0,30.17,South,177,0.0,0.0,86,0.00,,,0.00,0,Wunderground v.1.15,2013-01-15 04:48:00,
2013-01-14 23:58:00,66.0,62.0,30.17,South,177,0.0,0.0,87,0.00,,,0.00,0,Wunderground v.1.15,2013-01-15 04:58:00,